Weather History for Owosso, MI

Change the Weather History Date:

Saturday, November 3, 2012

  Actual Average (KFNT) Record (KFNT)
Temperature  
Mean Temperature 34 °F 44 °F  
Max Temperature 39 °F 53 °F 75 °F (1987)
Min Temperature 28 °F 35 °F 12 °F (1951)
Degree Days  
Heating Degree Days 32 21  
Month to date heating degree days 63  
Since 1 July heating degree days 759  
Cooling Degree Days 0 0  
Month to date cooling degree days 0  
Year to date cooling degree days 531  
Moisture  
Dew Point 30 °F    
Average Humidity 86    
Maximum Humidity 100    
Minimum Humidity 70    
Precipitation  
Precipitation 0.00 in 0.10 in 0.85 in (2003)
Month to date precipitation 0.28  
Year to date precipitation 27.06  
Snow  
Snow 0.00 in 0.10 in 3.80 in (1966)
Month to date snowfall 0.1  
Since 1 July snowfall 0.5  
Since 1 September snowfall 0.5  
Snow Depth -    
Sea Level Pressure  
Sea Level Pressure 30.16 in    
Wind  
Wind Speed 4 mph (NW)    
Max Wind Speed 7 mph    
Max Gust Speed -    
Visibility 10 miles    
Events      
T = Trace of Precipitation, MM = Missing Value Source: NWS Daily Summary

Daily Weather History Graph

Daily Weather History Graph

Search for Another Location

Airport:

Trip Planner

Search our weather history database for the weather conditions in past years. The results will help you decide how hot, cold, wet, or windy it might be!

Date:

Astronomy

Nov. 03, 2012 Rise Set
Actual Time 8:14 AM EDT 6:25 PM EDT
Civil Twilight 7:44 AM EDT 6:55 PM EDT
Nautical Twilight 7:10 AM EDT 7:28 PM EDT
Astronomical Twilight 6:37 AM EDT 8:01 PM EDT
Moon 10:03 PM EDT (11/3) 12:20 PM EDT (11/3)
Length of Visible Light 11h 10m
Length of Day
10h 11m
Waning Gibbous, 80% of the Moon is Illuminated
Nov 3
Waning Gibbous
Nov 6
Last Quarter
Nov 13
New
Nov 20
First Quarter
Nov 28
Full

Hourly Weather History & Observations

Time (EDT) Temp. Windchill Dew Point Humidity Pressure Visibility Wind Dir Wind Speed Gust Speed Precip Events Conditions
12:15 AM 34.5 °F 29.4 °F 30.6 °F 85% 30.09 in 10.0 mi NW 5.8 mph - N/A   Clear
12:35 AM 34.2 °F 29.0 °F 30.2 °F 85% 30.09 in 10.0 mi NW 5.8 mph - N/A   Clear
12:55 AM 33.6 °F 29.4 °F 30.0 °F 87% 30.10 in 10.0 mi NW 4.6 mph - N/A   Clear
1:15 AM 32.9 °F 29.8 °F 30.0 °F 89% 30.10 in 10.0 mi WNW 3.5 mph - N/A   Clear
1:35 AM 32.0 °F 27.5 °F 29.3 °F 90% 30.10 in 10.0 mi West 4.6 mph - N/A   Clear
1:55 AM 32.0 °F 27.5 °F 30.2 °F 93% 30.11 in 10.0 mi WNW 4.6 mph - N/A   Scattered Clouds
2:15 AM 32.0 °F 27.5 °F 30.7 °F 95% 30.11 in 10.0 mi WNW 4.6 mph - N/A   Scattered Clouds
2:35 AM 32.4 °F 29.1 °F 30.9 °F 94% 30.11 in 10.0 mi WNW 3.5 mph - N/A   Mostly Cloudy
3:15 AM 32.0 °F 27.5 °F 30.7 °F 95% 30.12 in 10.0 mi WNW 4.6 mph - N/A   Clear
3:35 AM 31.8 °F 27.3 °F 30.2 °F 94% 30.13 in 10.0 mi West 4.6 mph - N/A   Clear
3:54 AM 32.0 °F 28.7 °F 30.7 °F 95% 30.13 in 10.0 mi WNW 3.5 mph - N/A   Clear
4:15 AM 31.1 °F 27.7 °F 30.2 °F 96% 30.13 in 10.0 mi West 3.5 mph - N/A   Clear
4:35 AM 31.1 °F 26.4 °F 30.2 °F 96% 30.13 in 10.0 mi West 4.6 mph - N/A   Clear
4:55 AM 31.8 °F 27.3 °F 31.1 °F 97% 30.13 in 10.0 mi NW 4.6 mph - N/A   Clear
5:15 AM 32.0 °F 27.5 °F 31.1 °F 96% 30.13 in 10.0 mi WNW 4.6 mph - N/A   Clear
5:35 AM 31.6 °F - 30.9 °F 97% 30.13 in 10.0 mi Calm Calm - N/A   Clear
5:55 AM 30.9 °F 26.2 °F 30.2 °F 97% 30.14 in 10.0 mi WNW 4.6 mph - N/A   Clear
6:15 AM 31.1 °F 26.4 °F 30.9 °F 99% 30.14 in 10.0 mi WNW 4.6 mph - N/A   Clear
6:35 AM 31.1 °F 27.7 °F 30.6 °F 98% 30.15 in 10.0 mi WNW 3.5 mph - N/A   Clear
6:55 AM 30.9 °F - 30.2 °F 97% 30.15 in 10.0 mi Calm Calm - N/A   Clear
7:15 AM 30.7 °F 27.3 °F 30.0 °F 97% 30.16 in 10.0 mi WNW 3.5 mph - N/A   Clear
7:34 AM 30.7 °F 27.3 °F 30.0 °F 97% 30.15 in 10.0 mi NW 3.5 mph - N/A   Clear
7:55 AM 29.3 °F - 28.9 °F 99% 30.16 in 10.0 mi Calm Calm - N/A   Clear
8:15 AM 30.2 °F - 29.8 °F 99% 30.16 in 10.0 mi Calm Calm - N/A   Clear
8:35 AM 29.1 °F - 28.4 °F 97% 30.16 in 10.0 mi Calm Calm - N/A   Clear
8:55 AM 28.4 °F - 28.4 °F 100% 30.17 in 10.0 mi Calm Calm - N/A   Clear
9:14 AM 30.7 °F - 30.7 °F 100% 30.17 in 10.0 mi Calm Calm - N/A   Clear
9:35 AM 32.9 °F 29.8 °F 32.0 °F 96% 30.17 in 10.0 mi NNW 3.5 mph - N/A   Scattered Clouds
9:55 AM 34.3 °F 30.2 °F 32.4 °F 92% 30.17 in 10.0 mi NNW 4.6 mph - N/A   Scattered Clouds
10:15 AM 35.8 °F 30.9 °F 32.5 °F 88% 30.18 in 10.0 mi NNW 5.8 mph - N/A   Clear
10:55 AM 37.2 °F 33.6 °F 32.4 °F 83% 30.20 in 10.0 mi WNW 4.6 mph - N/A   Scattered Clouds
11:15 AM 36.7 °F 32.9 °F 31.1 °F 80% 30.20 in 10.0 mi North 4.6 mph - N/A   Scattered Clouds
11:35 AM 37.6 °F 34.0 °F 31.5 °F 79% 30.20 in 10.0 mi WNW 4.6 mph - N/A   Mostly Cloudy
11:55 AM 37.6 °F 34.0 °F 30.9 °F 77% 30.20 in 10.0 mi NNW 4.6 mph - N/A   Overcast
12:15 PM 37.8 °F 35.3 °F 31.1 °F 77% 30.21 in 10.0 mi NNW 3.5 mph - N/A   Overcast
12:35 PM 37.9 °F 35.5 °F 31.3 °F 77% 30.20 in 10.0 mi WNW 3.5 mph - N/A   Overcast
12:55 PM 38.1 °F - 30.2 °F 73% 30.18 in 10.0 mi Calm Calm - N/A   Overcast
1:15 PM 37.6 °F 33.1 °F 29.8 °F 74% 30.18 in 10.0 mi NNE 5.8 mph - N/A   Overcast
1:35 PM 38.3 °F - 29.8 °F 72% 30.18 in 10.0 mi Calm Calm - N/A   Overcast
1:55 PM 39.2 °F 37.0 °F 30.7 °F 72% 30.17 in 10.0 mi West 3.5 mph - N/A   Overcast
2:15 PM 39.6 °F 36.3 °F 30.4 °F 70% 30.17 in 10.0 mi North 4.6 mph - N/A   Overcast
2:34 PM 39.0 °F 34.0 °F 30.6 °F 72% 30.19 in 10.0 mi West 6.9 mph - N/A   Overcast
2:55 PM 38.8 °F 34.6 °F 30.6 °F 72% 30.17 in 10.0 mi West 5.8 mph - N/A   Overcast
3:15 PM 38.7 °F 35.2 °F 30.6 °F 73% 30.17 in 10.0 mi NW 4.6 mph - N/A   Overcast
3:35 PM 38.5 °F 36.1 °F 30.2 °F 72% 30.17 in 10.0 mi WNW 3.5 mph - N/A   Overcast
3:55 PM 39.2 °F - 31.1 °F 73% 30.16 in 10.0 mi Calm Calm - N/A   Overcast
4:15 PM 39.2 °F 37.0 °F 30.9 °F 72% 30.17 in 10.0 mi WNW 3.5 mph - N/A   Overcast
4:35 PM 38.7 °F 35.2 °F 30.9 °F 74% 30.18 in 10.0 mi WNW 4.6 mph - N/A   Overcast
4:55 PM 38.3 °F 35.9 °F 30.6 °F 74% 30.17 in 10.0 mi North 3.5 mph - N/A   Overcast
5:15 PM 38.5 °F 36.1 °F 30.2 °F 72% 30.17 in 10.0 mi West 3.5 mph - N/A   Overcast
5:35 PM 38.7 °F - 30.2 °F 72% 30.17 in 10.0 mi Calm Calm - N/A   Overcast
5:55 PM 38.5 °F 34.1 °F 30.0 °F 72% 30.17 in 10.0 mi North 5.8 mph - N/A   Overcast
6:15 PM 38.3 °F 35.9 °F 30.6 °F 74% 30.17 in 10.0 mi North 3.5 mph - N/A   Overcast
6:35 PM 38.3 °F 33.9 °F 30.2 °F 73% 30.17 in 10.0 mi NNW 5.8 mph - N/A   Overcast
6:55 PM 37.8 °F 35.3 °F 30.6 °F 75% 30.17 in 10.0 mi North 3.5 mph - N/A   Overcast
7:14 PM 37.6 °F 35.1 °F 30.0 °F 74% 30.17 in 10.0 mi NNW 3.5 mph - N/A   Overcast
7:35 PM 37.6 °F 35.1 °F 30.0 °F 74% 30.18 in 10.0 mi NW 3.5 mph - N/A   Overcast
7:55 PM 37.6 °F - 30.2 °F 75% 30.18 in 10.0 mi Calm Calm - N/A   Mostly Cloudy
8:15 PM 36.3 °F - 29.5 °F 76% 30.18 in 10.0 mi Calm Calm - N/A   Scattered Clouds
8:35 PM 35.6 °F - 29.7 °F 79% 30.17 in 10.0 mi Calm Calm - N/A   Clear
8:54 PM 33.4 °F - 29.5 °F 85% 30.17 in 10.0 mi Calm Calm - N/A   Clear
9:15 PM 32.0 °F 28.7 °F 29.5 °F 90% 30.17 in 10.0 mi North 3.5 mph - N/A   Clear
9:35 PM 33.3 °F 30.2 °F 30.0 °F 88% 30.17 in 10.0 mi NNE 3.5 mph - N/A   Clear
9:55 PM 32.9 °F - 30.2 °F 90% 30.18 in 10.0 mi Calm Calm - N/A   Clear
10:15 PM 31.5 °F - 28.6 °F 89% 30.19 in 10.0 mi Calm Calm - N/A   Clear
10:35 PM 30.6 °F - 28.8 °F 93% 30.20 in 10.0 mi Calm Calm - N/A   Clear
10:55 PM 30.4 °F - 29.3 °F 96% 30.19 in 10.0 mi Calm Calm - N/A   Mostly Cloudy
11:15 PM 30.9 °F - 30.2 °F 97% 30.19 in 10.0 mi Calm Calm - N/A   Overcast
11:35 PM 31.8 °F - 31.5 °F 99% 30.19 in 10.0 mi Calm Calm - N/A   Overcast
11:55 PM 32.5 °F - 31.8 °F 97% 30.19 in 10.0 mi Calm Calm - N/A   Overcast